1485604800.23,22563,12.38,73814.3,10.95,-24.77,-24.83,0,*4B
1485604801.45,22564,12.38,73814.5,10.97,-24.87,-24.93,0,*40
1485604802.68,22565,12.38,73814.8,10.95,-25.49,-25.61,0,*4C
1485604803.94,22566,12.38,73814.0,10.97,-25.55,-25.55,0,*47
1485604805.19,22567,12.38,73814.3,10.95,-25.13,-25.29,0,*4D
1485604806.47,22568,12.38,73810.8,10.99,-24.83,-24.87,0,*43
1485604807.67,22569,12.38,73812.8,10.97,-25.09,-25.23,0,*40
1485604808.89,22570,12.38,73814.3,10.95,-25.23,-25.19,0,*4B
1485604810.15,22571,12.38,73812.0,10.97,-25.55,-25.55,0,*41
1485604811.36,22572,12.38,73812.8,10.97,-25.35,-25.45,0,*45
1485604812.61,22573,12.38,73812.0,10.95,-25.23,-25.45,0,*41
1485604813.84,22574,12.38,73814.5,10.97,-25.03,-25.09,0,*4E
1485604815.05,22575,12.38,73814.5,10.97,-24.93,-25.03,0,*4D
1485604816.33,22576,12.38,73810.0,10.99,-24.71,-24.83,0,*45
1485604817.55,22577,12.38,73814.0,10.99,-25.13,-25.19,0,*43
1485604818.83,22578,12.38,73816.8,10.99,-24.83,-24.83,0,*46
1485604820.1,22579,12.38,73816.3,10.99,-24.83,-25.03,0,*4E
1485604821.38,22580,12.38,73818.5,10.99,-24.83,-25.03,0,*48
1485604822.63,22581,12.38,73814.0,10.99,-25.13,-25.29,0,*49
1485604823.88,22582,12.38,73814.8,10.99,-25.13,-25.29,0,*4A
1485604825.11,22583,12.38,73812.0,11.01,-25.13,-25.29,0,*4B
1485604826.34,22584,12.38,73812.0,10.99,-25.35,-25.49,0,*4E
1485604827.56,22585,12.38,73812.0,10.99,-25.13,-25.19,0,*4E
1485604828.79,22586,12.38,73814.5,10.99,-25.39,-25.49,0,*40
1485604830.0,22587,12.38,73814.0,11.01,-25.35,-25.49,0,*4D
1485604831.23,22588,12.38,73814.5,10.99,-25.49,-25.49,0,*49
1485604832.45,22589,12.38,73812.3,10.99,-25.39,-25.65,0,*41
1485604833.7,22590,12.38,73816.3,10.99,-25.29,-25.39,0,*41
1485604834.93,22591,12.38,73814.0,10.99,-25.49,-25.49,0,*41
1485604836.18,22592,12.38,73812.0,10.97,-25.45,-25.71,0,*4B
1485604837.43,22593,12.38,73814.8,10.97,-25.45,-25.55,0,*4C
1485604838.68,22594,12.38,73814.5,10.99,-25.65,-25.71,0,*41
1485604839.9,22595,12.38,73814.3,10.99,-25.65,-25.87,0,*49
1485604841.15,22596,12.38,73812.8,10.99,-25.49,-25.55,0,*4B
1485604842.38,22597,12.38,73814.8,10.99,-25.49,-25.49,0,*47
1485604843.64,22598,12.38,73814.5,10.99,-25.65,-25.71,0,*4D
1485604844.88,22599,12.38,73812.0,10.99,-25.65,-25.81,0,*43
1485604846.14,22600,12.38,73814.0,10.99,-25.65,-25.71,0,*4F
1485604847.38,22601,12.38,73816.8,10.97,-25.45,-25.71,0,*42
1485604848.6,22602,12.38,73814.5,10.97,-25.35,-25.45,0,*41
1485604849.82,22603,12.38,73812.5,10.97,-25.45,-25.61,0,*41
1485604851.06,22604,12.38,73812.3,10.97,-25.55,-25.61,0,*47
1485604852.28,22605,12.38,73814.8,10.97,-25.35,-25.55,0,*47
1485604853.48,22606,12.38,73814.3,10.97,-25.19,-25.39,0,*40
1485604854.7,22607,12.38,73812.5,10.97,-25.35,-25.55,0,*45
1485604855.94,22608,12.38,73814.3,10.97,-25.45,-25.45,0,*4C
1485604857.19,22609,12.38,73812.3,10.97,-25.45,-25.55,0,*4C
1485604858.39,22610,12.38,73814.0,10.97,-25.39,-25.61,0,*48
1485604859.59,22611,12.38,73812.3,10.97,-25.35,-25.39,0,*48
1485604860.85,22612,12.38,73810.8,10.97,-25.55,-25.71,0,*41
1485604862.04,22613,12.38,73812.0,10.97,-25.19,-25.35,0,*48
1485604863.26,22614,12.38,73814.5,10.99,-24.97,-25.19,0,*48
1485604864.5,22615,12.38,73816.0,10.99,-25.03,-25.19,0,*45
1485604865.73,22616,12.38,73814.8,10.99,-25.35,-25.49,0,*46
1485604866.95,22617,12.38,73814.5,10.99,-24.97,-25.13,0,*41
1485604868.23,22618,12.38,73812.5,10.99,-24.83,-25.03,0,*4A
1485604869.48,22619,12.38,73814.0,10.99,-25.29,-25.49,0,*44
1485604870.7,22620,12.38,73816.3,10.99,-25.35,-25.49,0,*43
1485604871.93,22621,12.38,73812.3,10.97,-25.71,-25.87,0,*4E
1485604873.18,22622,12.38,73810.3,10.95,-25.45,-25.61,0,*40
1485604874.4,22623,12.38,73814.0,10.97,-25.23,-25.45,0,*45
1485604875.59,22624,12.38,73814.8,10.97,-24.93,-25.09,0,*40
1485604876.78,22625,12.38,73812.5,10.97,-24.93,-24.93,0,*43
1485604878.05,22626,12.38,73810.5,10.99,-24.87,-25.03,0,*43
1485604879.3,22627,12.38,73814.3,10.99,-25.29,-25.49,0,*49
1485604880.52,22628,12.38,73814.0,10.99,-25.35,-25.49,0,*4B
1485604881.77,22629,12.38,73814.0,10.99,-25.29,-25.39,0,*40
1485604883.01,22630,12.38,73814.0,10.99,-24.97,-25.03,0,*45
1485604884.22,22631,12.38,73812.5,11.01,-25.19,-25.35,0,*46
1485604885.47,22632,12.38,73814.5,11.01,-24.87,-25.03,0,*46
1485604886.74,22633,12.38,73814.3,11.01,-25.55,-25.55,0,*4A
1485604887.99,22634,12.38,73812.8,10.99,-25.13,-25.29,0,*44
1485604889.24,22635,12.38,73814.8,10.99,-24.57,-24.71,0,*48
1485604890.45,22636,12.38,73816.5,11.01,-24.35,-24.31,0,*4B
1485604891.68,22637,12.38,73814.0,10.99,-24.31,-24.51,0,*48
1485604892.93,22638,12.38,73812.0,11.01,-24.67,-24.67,0,*41
1485604894.18,22639,12.38,73816.8,11.03,-24.51,-24.61,0,*41
1485604895.41,22640,12.38,73816.0,11.03,-24.93,-25.13,0,*45
1485604896.68,22641,12.38,73814.5,11.03,-24.83,-25.09,0,*4E
1485604897.92,22642,12.38,73818.3,11.03,-24.77,-24.77,0,*4E
1485604899.19,22643,12.38,73812.5,11.03,-24.25,-24.31,0,*4A
1485604900.41,22644,12.38,73816.3,11.05,-24.47,-24.35,0,*4B
1485604901.65,22645,12.38,73814.8,11.05,-24.83,-25.09,0,*4C
1485604902.91,22646,12.38,73814.0,11.03,-25.35,-25.45,0,*4D
1485604904.17,22647,12.38,73814.3,11.03,-25.45,-25.61,0,*4D
1485604905.46,22648,12.38,73812.5,11.03,-25.75,-25.97,0,*48
1485604906.7,22649,12.38,73814.8,11.03,-26.49,-26.65,0,*4B
1485604907.93,22650,12.38,73812.5,11.01,-26.55,-26.87,0,*40
1485604909.18,22651,12.38,73814.0,10.99,-25.81,-25.87,0,*48
1485604910.43,22652,12.38,73812.5,10.99,-25.29,-25.39,0,*4C
1485604911.67,22653,12.38,73816.5,10.99,-24.87,-24.97,0,*4D
1485604912.94,22654,12.38,73812.3,10.99,-24.83,-24.87,0,*4F
1485604914.19,22655,12.38,73814.0,10.99,-25.03,-25.13,0,*4B
1485604915.45,22656,12.38,73814.8,11.01,-24.87,-25.03,0,*44
1485604916.68,22657,12.38,73816.3,11.01,-25.13,-25.29,0,*41
1485604917.96,22658,12.38,73814.8,10.99,-25.71,-25.81,0,*48
1485604919.21,22659,12.38,73814.3,10.99,-26.29,-26.39,0,*47
1485604920.46,22660,12.38,73812.8,10.99,-25.19,-25.29,0,*4F
1485604921.73,22661,12.38,73814.5,10.99,-24.83,-24.87,0,*49
1485604922.96,22662,12.38,73814.3,11.01,-25.19,-25.29,0,*4D
1485604924.18,22663,12.38,73812.0,11.01,-25.49,-25.49,0,*4F
1485604925.46,22664,12.38,73818.0,10.99,-25.71,-25.97,0,*40
1485604926.71,22665,12.38,73812.0,10.99,-25.65,-25.71,0,*4C
1485604927.98,22666,12.38,73812.3,10.99,-25.29,-25.29,0,*4A
1485604929.25,22667,12.38,73816.5,10.99,-25.97,-26.17,0,*40
1485604930.48,22668,12.38,73818.5,10.99,-25.65,-25.65,0,*44
1485604931.73,22669,12.38,73812.5,10.95,-25.45,-25.49,0,*45
1485604932.96,22670,12.38,73814.5,10.95,-25.23,-25.39,0,*4A
1485604934.16,22671,12.38,73814.5,10.97,-25.35,-25.39,0,*4E
1485604935.38,22672,12.38,73812.5,10.97,-25.71,-25.87,0,*48
1485604936.64,22673,12.38,73814.5,10.97,-25.71,-25.75,0,*44
1485604937.88,22674,12.38,73814.0,10.95,-24.93,-24.83,0,*44
1485604939.16,22675,12.38,73812.8,10.99,-24.71,-24.87,0,*41
1485604940.38,22676,12.38,73812.8,10.99,-25.19,-25.39,0,*49
1485604941.58,22677,12.38,73814.5,10.97,-24.57,-24.61,0,*41
1485604942.78,22678,12.38,73812.3,10.97,-24.61,-24.57,0,*4E
1485604944.06,22679,12.38,73814.8,10.99,-24.67,-24.71,0,*43
1485604945.26,22680,12.38,73812.3,11.01,-24.57,-24.57,0,*42
1485604946.5,22681,12.38,73816.5,11.01,-24.35,-24.41,0,*40
1485604947.78,22682,12.38,73812.3,10.99,-24.71,-24.87,0,*49
1485604949.01,22683,12.38,73814.0,11.01,-25.65,-25.81,0,*4B
1485604950.24,22684,12.38,73816.0,10.99,-25.39,-25.39,0,*46
1485604951.45,22685,12.38,73814.3,11.01,-24.51,-24.57,0,*41
1485604952.66,22686,12.38,73812.0,11.01,-24.35,-24.51,0,*46
1485604953.92,22687,12.38,73816.8,11.03,-24.51,-24.67,0,*42
1485604955.19,22688,12.38,73812.3,11.03,-24.83,-25.13,0,*40
1485604956.48,22689,12.38,73814.5,11.03,-24.67,-24.67,0,*49
1485604957.74,22690,12.38,73812.3,11.05,-24.67,-24.83,0,*4D
1485604958.98,22691,12.38,73812.5,11.03,-24.51,-24.61,0,*43
1485604960.2,22692,12.38,73812.0,11.05,-24.51,-24.51,0,*45
1485604961.42,22693,12.38,73812.8,11.05,-25.13,-25.23,0,*47
1485604962.63,22694,12.38,73814.5,11.05,-24.97,-25.09,0,*45
1485604963.84,22695,12.38,73816.3,11.05,-24.93,-24.97,0,*46
1485604965.1,22696,12.38,73814.5,11.03,-25.13,-25.29,0,*4E
1485604966.34,22697,12.38,73814.0,11.03,-25.09,-25.13,0,*4D
1485604967.55,22698,12.38,73816.0,11.05,-24.97,-25.13,0,*42
1485604968.81,22699,12.38,73816.5,11.07,-25.19,-25.29,0,*4F
1485604970.02,22700,12.38,73812.3,11.05,-25.09,-25.13,0,*44
1485604971.23,22701,12.38,73814.5,11.05,-24.93,-25.13,0,*47
1485604972.5,22702,12.38,73812.5,11.07,-24.71,-24.77,0,*49
1485604973.72,22703,12.38,73814.3,11.05,-24.77,-24.77,0,*4C
1485604974.96,22704,12.38,73814.3,11.07,-24.77,-24.77,0,*49
1485604976.25,22705,12.38,73814.3,11.11,-24.83,-25.03,0,*46
1485604977.51,22706,12.38,73814.5,11.11,-24.57,-24.67,0,*4F
1485604978.81,22707,12.38,73812.5,11.11,-24.71,-24.83,0,*40
1485604980.07,22708,12.38,73812.8,11.13,-24.67,-24.71,0,*47
1485604981.33,22709,12.38,73814.3,11.13,-24.67,-24.67,0,*41
1485604982.59,22710,12.38,73818.0,11.13,-24.67,-24.87,0,*47
1485604983.79,22711,12.38,73816.3,11.13,-25.35,-25.35,0,*48
1485604985.01,22712,12.38,73818.3,11.13,-25.35,-25.49,0,*40
1485604986.28,22713,12.38,73812.0,11.11,-25.49,-25.55,0,*45
1485604987.56,22714,12.38,73812.5,11.11,-24.87,-24.87,0,*4F
1485604988.81,22715,12.38,73818.3,11.11,-24.51,-24.51,0,*4E
1485604990.02,22716,12.38,73814.0,11.13,-24.51,-24.57,0,*49
1485604991.26,22717,12.38,73816.5,11.13,-24.35,-24.41,0,*4D
1485604992.5,22718,12.38,73812.8,11.15,-24.35,-24.35,0,*47
1485604993.73,22719,12.38,73812.3,11.13,-24.97,-25.03,0,*4C
1485604994.99,22720,12.38,73816.5,11.15,-24.67,-24.77,0,*4D
1485604996.23,22721,12.38,73814.0,11.15,-24.61,-24.77,0,*4A
1485604997.47,22722,12.38,73812.5,11.15,-25.09,-25.19,0,*4F
1485604998.73,22723,12.38,73818.8,11.15,-25.45,-25.61,0,*49
1485604999.97,22724,12.38,73814.3,11.15,-25.13,-25.19,0,*42
1485605001.2,22725,12.38,73814.5,11.15,-25.13,-25.19,0,*43
1485605002.44,22726,12.38,73814.5,11.15,-25.09,-25.19,0,*4B
1485605003.7,22727,12.38,73812.0,11.15,-25.29,-25.35,0,*46
1485605004.96,22728,12.38,73814.0,11.15,-24.67,-24.77,0,*45
1485605006.25,22729,12.38,73814.8,11.15,-24.67,-24.83,0,*4F
1485605007.47,22730,12.38,73812.8,11.15,-24.93,-24.97,0,*49
1485605008.71,22731,12.38,73814.3,11.17,-24.83,-24.93,0,*4F
1485605009.92,22732,12.38,73816.3,11.17,-24.93,-25.09,0,*4F
1485605011.13,22733,12.38,73818.3,11.17,-25.09,-25.19,0,*4D
1485605012.36,22734,12.38,73812.3,11.17,-25.19,-25.29,0,*48
1485605013.57,22735,12.38,73816.3,11.17,-25.13,-25.13,0,*4A
1485605014.84,22736,12.38,73814.5,11.19,-24.71,-24.77,0,*41
1485605016.09,22737,12.38,73818.5,11.17,-24.57,-24.71,0,*4C
1485605017.3,22738,12.38,73816.0,11.17,-24.77,-24.93,0,*4D
1485605018.51,22739,12.38,73814.3,11.17,-24.61,-24.77,0,*41
1485605019.74,22740,12.44,73818.8,11.17,-24.77,-24.83,0,*43
1485605021.01,22741,12.38,73812.3,11.19,-24.77,-24.87,0,*48
1485605022.28,22742,12.38,73814.0,11.19,-25.03,-25.13,0,*45
1485605023.52,22743,12.38,73818.5,11.19,-24.77,-24.93,0,*4F
1485605024.79,22744,12.38,73814.0,11.19,-24.71,-24.77,0,*44
1485605026.03,22745,12.38,73816.8,11.19,-25.13,-25.23,0,*40
1485605027.27,22746,12.38,73810.3,11.19,-24.93,-25.09,0,*42
1485605028.51,22747,12.38,73818.5,11.19,-24.57,-24.61,0,*44
1485605029.75,22748,12.38,73814.5,11.21,-24.57,-24.71,0,*41
1485605031.02,22749,12.38,73814.0,11.23,-25.03,-25.19,0,*4D
1485605032.23,22750,12.38,73816.0,11.21,-24.97,-25.09,0,*4A
1485605033.47,22751,12.38,73812.3,11.21,-24.57,-24.83,0,*44
1485605034.69,22752,12.38,73816.0,11.21,-24.51,-24.57,0,*48
1485605035.96,22753,12.38,73814.3,11.21,-24.71,-24.83,0,*42
1485605037.23,22754,12.38,73814.5,11.21,-24.71,-24.87,0,*41
1485605038.47,22755,12.38,73812.0,11.23,-24.35,-24.35,0,*4B
1485605039.72,22756,12.38,73814.0,11.23,-24.47,-24.47,0,*48
1485605041.01,22757,12.38,73814.0,11.23,-24.21,-24.21,0,*49
1485605042.25,22758,12.38,73812.3,11.23,-24.35,-24.47,0,*43
1485605043.5,22759,12.38,73812.3,11.23,-24.47,-24.51,0,*40
1485605044.77,22760,12.38,73814.3,11.23,-24.83,-24.77,0,*46
1485605046.0,22761,12.38,73814.5,11.23,-25.19,-25.35,0,*42
1485605047.21,22762,12.38,73812.8,11.25,-24.77,-24.93,0,*43
1485605048.42,22763,12.38,73816.8,11.25,-24.47,-24.47,0,*48
1485605049.63,22764,12.38,73812.8,11.25,-24.61,-24.61,0,*4F
1485605050.89,22765,12.38,73812.5,11.27,-24.41,-24.47,0,*4A
1485605052.1,22766,12.38,73816.0,11.25,-25.19,-25.13,0,*47
1485605053.33,22767,12.38,73816.8,11.25,-24.97,-25.03,0,*40
1485605054.56,22768,12.38,73814.5,11.27,-24.57,-24.61,0,*44
1485605055.79,22769,12.38,73812.8,11.25,-24.83,-24.97,0,*47
1485605056.99,22770,12.38,73814.8,11.25,-24.93,-24.97,0,*4E
1485605058.29,22771,12.44,73816.3,11.27,-24.71,-24.71,0,*49
1485605059.55,22772,12.38,73814.5,11.27,-24.77,-24.87,0,*45
1485605060.8,22773,12.38,73812.3,11.27,-24.93,-24.87,0,*4E
1485605062.02,22774,12.38,73816.0,11.27,-24.93,-24.97,0,*48
1485605063.26,22775,12.44,73818.3,11.27,-25.09,-25.09,0,*4D
1485605064.52,22776,12.38,73816.5,11.27,-24.77,-24.87,0,*41
1485605065.78,22777,12.44,73818.5,11.31,-24.51,-24.67,0,*4D
1485605067.01,22778,12.38,73812.8,11.27,-24.57,-24.57,0,*40
1485605068.28,22779,12.44,73818.0,11.27,-24.41,-24.57,0,*46
1485605069.49,22780,12.38,73812.3,11.29,-24.61,-24.77,0,*4E
1485605070.74,22781,12.38,73814.8,11.29,-24.71,-24.77,0,*4E
1485605072.01,22782,12.44,73814.5,11.29,-24.71,-24.71,0,*4B
1485605073.21,22783,12.44,73816.5,11.29,-24.93,-24.97,0,*4E
1485605074.42,22784,12.38,73812.8,11.29,-25.13,-25.13,0,*4D
1485605075.63,22785,12.38,73812.3,11.29,-25.13,-25.23,0,*4F
1485605076.9,22786,12.38,73814.8,11.29,-24.71,-24.87,0,*46
1485605078.15,22787,12.38,73814.5,11.29,-24.71,-24.77,0,*48
1485605079.39,22788,12.38,73812.0,11.29,-24.61,-24.71,0,*40
1485605080.6,22789,12.44,73816.3,11.29,-24.51,-24.57,0,*46
1485605081.8,22790,12.38,73812.0,11.29,-24.93,-24.97,0,*4C
1485605083.01,22791,12.38,73816.8,11.29,-24.57,-24.57,0,*49
1485605084.25,22792,12.38,73812.0,11.29,-24.41,-24.57,0,*4D
1485605085.55,22793,12.38,73816.0,11.31,-24.25,-24.25,0,*42
1485605086.78,22794,12.44,73818.5,11.29,-24.41,-24.57,0,*4B
1485605088.04,22795,12.44,73818.5,11.31,-24.87,-24.93,0,*41
1485605089.3,22796,12.38,73814.8,11.31,-25.03,-25.19,0,*4C
1485605090.54,22797,12.44,73816.0,11.31,-25.23,-25.35,0,*41
1485605091.83,22798,12.38,73814.3,11.31,-24.67,-24.71,0,*4E
1485605093.06,22799,12.44,73816.5,11.31,-24.57,-24.57,0,*48
1485605094.33,22800,12.44,73816.5,11.31,-24.41,-24.57,0,*40
1485605095.61,22801,12.44,73818.8,11.31,-24.87,-25.03,0,*4B
1485605096.9,22802,12.38,73814.8,11.31,-24.67,-24.67,0,*45
1485605098.11,22803,12.38,73814.3,11.29,-24.61,-24.61,0,*4D
1485605099.37,22804,12.44,73816.5,11.31,-24.57,-24.71,0,*47
1485605100.64,22805,12.38,73814.5,11.31,-24.41,-24.57,0,*45
1485605101.86,22806,12.38,73814.5,11.35,-24.51,-24.47,0,*42
1485605103.1,22807,12.38,73814.5,11.35,-24.67,-24.77,0,*45
1485605104.38,22808,12.38,73814.3,11.37,-24.67,-24.83,0,*43
1485605105.65,22809,12.44,73818.0,11.37,-24.77,-24.87,0,*47
1485605106.89,22810,12.44,73816.0,11.37,-24.47,-24.61,0,*44
1485605108.11,22811,12.38,73814.5,11.35,-24.61,-24.61,0,*43
1485605109.35,22812,12.44,73816.8,11.35,-24.77,-24.83,0,*4B
1485605110.59,22813,12.44,73816.3,11.37,-24.51,-24.61,0,*40
1485605111.81,22814,12.44,73814.5,11.35,-24.47,-24.61,0,*42
1485605113.06,22815,12.44,73816.5,11.37,-24.47,-24.51,0,*42
1485605114.27,22816,12.44,73818.8,11.39,-24.57,-24.61,0,*4D
1485605115.51,22817,12.38,73812.5,11.39,-24.41,-24.47,0,*4F
1485605116.73,22818,12.38,73814.5,11.39,-24.47,-24.57,0,*47
1485605117.95,22819,12.44,73818.3,11.39,-24.47,-24.47,0,*47
1485605119.17,22820,12.38,73812.0,11.39,-24.47,-24.61,0,*49
1485605120.38,22821,12.38,73814.5,11.39,-24.57,-24.61,0,*49
1485605121.6,22822,12.38,73812.3,11.39,-24.77,-24.93,0,*45
1485605122.83,22823,12.38,73812.0,11.39,-24.77,-24.83,0,*45
1485605124.05,22824,12.38,73812.5,11.39,-24.47,-24.47,0,*49
1485605125.32,22825,12.44,73816.3,11.41,-24.31,-24.41,0,*40
1485605126.54,22826,12.44,73814.8,11.41,-24.93,-24.93,0,*44
1485605127.77,22827,12.38,73812.5,11.41,-25.13,-25.23,0,*46
1485605129.03,22828,12.38,73812.8,11.41,-24.57,-24.71,0,*4E
1485605130.24,22829,12.38,73812.3,11.39,-24.61,-24.77,0,*43
1485605131.48,22830,12.38,73814.5,11.41,-24.61,-24.61,0,*43
1485605132.76,22831,12.44,73814.3,11.41,-24.41,-24.41,0,*42
1485605134.0,22832,12.38,73814.3,11.41,-24.47,-24.47,0,*41
1485605135.21,22833,12.44,73814.0,11.43,-24.35,-24.35,0,*42
1485605136.46,22834,12.44,73814.5,11.43,-24.67,-24.67,0,*45
1485605137.73,22835,12.44,73814.3,11.43,-24.21,-24.21,0,*44
1485605138.99,22836,12.38,73814.5,11.43,-24.11,-24.11,0,*47
1485605140.23,22837,12.38,73812.5,11.43,-24.41,-24.51,0,*47
1485605141.43,22838,12.38,73814.5,11.43,-24.35,-24.35,0,*49
1485605142.69,22839,12.44,73814.5,11.45,-24.15,-24.31,0,*48
1485605143.92,22840,12.44,73818.5,11.45,-24.35,-24.51,0,*42
1485605145.16,22841,12.44,73816.0,11.45,-24.51,-24.61,0,*42
1485605146.4,22842,12.44,73812.8,11.45,-24.51,-24.35,0,*40
1485605147.66,22843,12.44,73814.3,11.49,-24.41,-24.47,0,*49
1485605148.91,22844,12.44,73816.5,11.47,-24.67,-24.67,0,*46
1485605150.18,22845,12.44,73812.8,11.47,-24.71,-24.71,0,*47
1485605151.42,22846,12.44,73814.5,11.47,-24.51,-24.67,0,*41
1485605152.67,22847,12.44,73816.8,11.47,-24.67,-24.67,0,*45
1485605153.93,22848,12.44,73814.5,11.49,-24.25,-24.47,0,*40
1485605155.17,22849,12.38,73812.3,11.49,-24.31,-24.31,0,*45
1485605156.41,22850,12.38,73812.0,11.47,-24.41,-24.51,0,*42
1485605157.67,22851,12.44,73812.8,11.49,-24.41,-24.47,0,*4A
1485605158.9,22852,12.44,73814.8,11.47,-24.57,-24.67,0,*42
1485605160.15,22853,12.38,73814.8,11.49,-24.41,-24.57,0,*49
1485605161.41,22854,12.44,73814.0,11.49,-24.77,-24.83,0,*42
1485605162.66,22855,12.44,73812.8,11.49,-24.77,-24.67,0,*49
1485605163.91,22856,12.44,73816.3,11.49,-24.57,-24.67,0,*48
1485605165.15,22857,12.44,73814.3,11.51,-24.25,-24.35,0,*42
1485605166.39,22858,12.44,73814.5,11.51,-24.61,-24.71,0,*4D
1485605167.62,22859,12.44,73814.3,11.53,-24.57,-24.61,0,*4A
1485605168.83,22860,12.44,73814.0,11.51,-24.57,-24.57,0,*47
1485605170.04,22861,12.44,73812.8,11.51,-24.51,-24.51,0,*46
1485605171.28,22862,12.44,73812.8,11.51,-24.35,-24.41,0,*46
1485605172.57,22863,12.44,73816.3,11.53,-24.21,-24.25,0,*42
1485605173.84,22864,12.38,73814.0,11.53,-23.95,-23.95,0,*41
1485605175.1,22865,12.44,73814.3,11.53,-24.11,-24.05,0,*45
1485605176.37,22866,12.44,73812.0,11.53,-23.95,-23.95,0,*43
1485605177.6,22867,12.38,73812.8,11.57,-23.89,-23.89,0,*46
1485605178.85,22868,12.44,73814.8,11.59,-23.99,-23.99,0,*47
1485605180.13,22869,12.38,73814.0,11.57,-23.85,-23.85,0,*48
1485605181.38,22870,12.44,73812.3,11.59,-23.95,-23.95,0,*4E
1485605182.62,22871,12.44,73812.5,11.59,-24.25,-24.31,0,*4A
1485605183.83,22872,12.44,73814.8,11.59,-24.51,-24.61,0,*4F
1485605185.06,22873,12.44,73816.0,11.59,-24.51,-24.67,0,*48
1485605186.3,22874,12.44,73812.0,11.59,-24.41,-24.51,0,*4B
1485605187.51,22875,12.44,73812.0,11.59,-24.51,-24.61,0,*48
1485605188.74,22876,12.44,73812.8,11.59,-24.41,-24.51,0,*49
1485605190.03,22877,12.44,73812.3,11.61,-24.25,-24.41,0,*40
1485605191.29,22878,12.44,73814.3,11.61,-24.77,-24.83,0,*46
1485605192.52,22879,12.38,73812.8,11.61,-24.77,-24.93,0,*46
1485605193.81,22880,12.44,73812.0,11.61,-24.41,-24.41,0,*4A
1485605195.04,22881,12.44,73812.8,11.63,-24.41,-24.47,0,*4F
1485605196.28,22882,12.44,73812.5,11.61,-24.61,-24.77,0,*4F
1485605197.51,22883,12.44,73814.3,11.61,-24.77,-24.61,0,*4E
1485605198.75,22884,12.44,73814.5,11.61,-24.97,-25.09,0,*48
1485605199.97,22885,12.44,73814.8,11.61,-25.65,-25.91,0,*44
1485605201.18,22886,12.38,73812.3,11.63,-25.35,-25.35,0,*4E
1485605202.44,22887,12.44,73816.0,11.61,-24.77,-24.83,0,*46
1485605203.72,22888,12.44,73812.8,11.61,-24.41,-24.41,0,*42
1485605204.93,22889,12.38,73814.3,11.63,-24.35,-24.35,0,*41
1485605206.16,22890,12.44,73814.8,11.63,-24.35,-24.41,0,*4A
1485605207.43,22891,12.44,73814.8,11.63,-24.25,-24.41,0,*4A
1485605208.66,22892,12.44,73814.5,11.63,-24.87,-24.93,0,*4E
1485605209.88,22893,12.44,73814.5,11.63,-24.93,-25.03,0,*42
1485605211.09,22894,12.44,73814.3,11.63,-24.61,-24.61,0,*4D
1485605212.36,22895,12.38,73808.8,11.65,-24.71,-24.71,0,*4A
1485605213.56,22896,12.38,73812.3,11.65,-24.93,-25.09,0,*4B
1485605214.83,22897,12.38,73812.3,11.65,-25.55,-25.75,0,*4A
1485605216.03,22898,12.44,73814.0,11.65,-24.61,-24.61,0,*47
1485605217.25,22899,12.44,73812.3,11.63,-24.47,-24.47,0,*40
1485605218.49,22900,12.44,73814.3,11.63,-24.35,-24.41,0,*42
1485605219.7,22901,12.44,73812.0,11.65,-24.47,-24.47,0,*46
1485605220.93,22902,12.38,73812.3,11.65,-24.11,-24.05,0,*40
1485605222.16,22903,12.44,73812.5,11.65,-24.25,-24.35,0,*45
1485605223.39,22904,12.44,73812.5,11.65,-24.11,-24.05,0,*46
1485605224.66,22905,12.44,73812.8,11.67,-24.21,-24.31,0,*41
1485605225.86,22906,12.44,73814.3,11.65,-24.57,-24.51,0,*47
1485605227.09,22907,12.44,73812.5,11.67,-24.97,-25.13,0,*4F
1485605228.38,22908,12.44,73814.0,11.67,-24.71,-24.83,0,*40
1485605229.65,22909,12.44,73814.8,11.67,-24.51,-24.41,0,*4D
1485605230.91,22910,12.44,73812.0,11.67,-24.21,-24.35,0,*41
1485605232.12,22911,12.44,73814.3,11.69,-24.47,-24.47,0,*4B
1485605233.33,22912,12.44,73814.8,11.69,-24.35,-24.35,0,*48
1485605234.61,22913,12.44,73810.8,11.71,-24.67,-24.83,0,*4A
1485605235.83,22914,12.44,73814.8,11.69,-24.77,-24.77,0,*4E
1485605237.09,22915,12.44,73816.8,11.71,-24.77,-24.83,0,*4D
1485605238.31,22916,12.44,73812.3,11.71,-24.93,-24.93,0,*45
1485605239.57,22917,12.44,73814.3,11.69,-24.67,-24.67,0,*4D
1485605240.8,22918,12.44,73814.0,11.71,-24.61,-24.51,0,*48
1485605242.04,22919,12.44,73814.3,11.71,-24.31,-24.35,0,*4E
1485605243.28,22920,12.44,73810.5,11.71,-24.61,-24.51,0,*43
1485605244.51,22921,12.44,73814.5,11.71,-24.61,-24.61,0,*41
1485605245.75,22922,12.44,73814.8,11.71,-24.97,-25.09,0,*44
1485605247.03,22923,12.44,73814.0,11.75,-24.67,-24.71,0,*40
1485605248.24,22924,12.44,73816.0,11.73,-24.61,-24.61,0,*46
1485605249.48,22925,12.38,73808.3,11.73,-24.41,-24.47,0,*41
1485605250.74,22926,12.44,73812.8,11.75,-24.83,-24.97,0,*47
1485605252.02,22927,12.44,73812.0,11.75,-24.83,-24.83,0,*43
1485605253.3,22928,12.44,73810.8,11.75,-24.67,-24.83,0,*46
1485605254.57,22929,12.44,73816.5,11.75,-24.35,-24.21,0,*48
1485605255.85,22930,12.44,73814.5,11.75,-24.67,-24.71,0,*42
1485605257.14,22931,12.44,73812.5,11.75,-24.67,-24.71,0,*43
1485605258.37,22932,12.44,73814.5,11.75,-25.23,-25.39,0,*4C
1485605259.6,22933,12.44,73814.8,11.75,-25.35,-25.39,0,*4A
1485605260.86,22934,12.44,73812.8,11.73,-25.75,-25.75,0,*47
1485605262.15,22935,12.38,73808.5,11.75,-24.71,-24.87,0,*49
1485605263.44,22936,12.44,73814.3,11.75,-25.03,-25.03,0,*43
1485605264.66,22937,12.44,73814.3,11.73,-24.93,-24.87,0,*41
1485605265.89,22938,12.44,73814.8,11.75,-24.57,-24.57,0,*4D
1485605267.12,22939,12.44,73812.5,11.75,-24.57,-24.57,0,*4C
1485605268.4,22940,12.44,73814.5,11.75,-24.83,-24.83,0,*42
1485605269.68,22941,12.44,73816.5,11.79,-24.67,-24.67,0,*4F
1485605270.94,22942,12.44,73808.5,11.79,-24.61,-24.67,0,*4A
1485605272.2,22943,12.44,73812.3,11.79,-25.81,-26.07,0,*40
1485605273.49,22944,12.44,73814.8,11.75,-26.13,-26.29,0,*4F
1485605274.74,22945,12.44,73812.0,11.75,-26.39,-26.55,0,*4D
1485605275.95,22946,12.44,73812.8,11.73,-26.45,-26.61,0,*44
1485605277.15,22947,12.44,73814.5,11.73,-26.87,-27.03,0,*4E
1485605278.37,22948,12.44,73812.0,11.73,-26.03,-26.23,0,*4E
1485605279.6,22949,12.44,73812.5,11.71,-26.49,-26.65,0,*41
1485605280.84,22950,12.44,73812.5,11.71,-26.39,-26.49,0,*40
1485605282.1,22951,12.44,73818.5,11.69,-25.81,-25.97,0,*48
1485605283.33,22952,12.44,73812.8,11.69,-25.23,-25.29,0,*46
1485605284.53,22953,12.44,73814.3,11.69,-24.97,-24.97,0,*4D
1485605285.79,22954,12.44,73812.5,11.71,-24.67,-24.77,0,*42
1485605287.02,22955,12.44,73812.5,11.73,-25.09,-25.29,0,*42
1485605288.26,22956,12.44,73814.3,11.71,-25.09,-25.23,0,*49
1485605289.52,22957,12.44,73812.5,11.71,-24.77,-24.83,0,*4B
1485605290.8,22958,12.44,73812.5,11.71,-24.83,-24.83,0,*4F
1485605292.06,22959,12.44,73812.3,11.73,-25.45,-25.55,0,*4D
1485605293.27,22960,12.44,73808.5,11.73,-25.09,-25.19,0,*47
1485605294.48,22961,12.44,73812.5,11.73,-24.57,-24.61,0,*42
1485605295.68,22962,12.44,73814.3,11.73,-24.57,-24.61,0,*41